This demonstration page uses our WeatherBlox Daily Observations layout. Learn more.

Left ArrowRight Arrow

44.89941, -97.11507

Hourly Observations for October 2, 2021

Temp ( °F °C ) Dew Point ( °F °C ) Humidity (%) Winds ( mph kmh ) Pressure ( in mb ) Visibility ( mi km ) Precip ( " mm )
12:03 am 00:03 Cloudy with Rain 62 16.7 60 15.6 93 93 N 7 11 29.98 1015 3 4 0.03 0.76
12:23 am 00:23 Cloudy with Rain 60 15.6 60 15.6 100 100 N 6 9 29.98 1015 3 4 0.11 2.79
12:46 am 00:46 Cloudy with Light Rain 60 15.6 59 15 96 96 N 7 11 29.98 1015 3 5 0.17 4.32
12:53 am 00:53 Cloudy with Light Rain 60 15.6 60 15.6 100 100 N 8 13 30.00 1016 3 5 0.17 4.32
1:51 am 01:51 Cloudy with Light Rain 61 16 59 15 94 94 N 6 9 29.96 1015 3 4 0.06 1.52
1:53 am 01:53 Cloudy with Light Rain 60 15.6 59 15 96 96 N 8 13 29.98 1015 3 4 0.06 1.52
2:03 am 02:03 Cloudy with Light Rain 60 15.6 59 15 96 96 N 8 13 29.95 1014 3 5 0.00 0.00
2:49 am 02:49 Cloudy with Mist and Fog 59 15 59 15 100 100 NNW 13 20 29.98 1015 2 3 0.00 0.00
2:53 am 02:53 Cloudy with Mist and Fog 59 15 59 15 100 100 NNW 13 20 29.99 1016 1 2 0.00 0.00
3:00 am 03:00 Cloudy with Fog 59 15 58 14.4 96 96 NNW 9 15 29.98 1015 1 1 N/A
3:09 am 03:09 Cloudy with Mist and Fog 58 14.4 58 14.4 100 100 NNW 9 15 29.98 1015 2 2 N/A
3:14 am 03:14 Cloudy with Mist and Fog 58 14.4 58 14.4 100 100 N 9 15 29.98 1015 3 5 N/A
3:46 am 03:46 Cloudy with Mist and Fog 58 14.4 58 14.4 100 100 N 7 11 29.99 1016 2 3 N/A
3:53 am 03:53 Cloudy with Mist and Fog 58 14.4 58 14.4 100 100 N 8 13 30.00 1016 2 2 N/A
4:03 am 04:03 Cloudy with Mist and Fog 58 14.4 58 14.4 100 100 N 9 15 29.99 1016 3 5 N/A
4:26 am 04:26 Cloudy with Mist and Fog 58 14.4 58 14.4 100 100 NNW 7 11 29.99 1016 2 3 N/A
4:40 am 04:40 Cloudy with Mist and Fog 58 14.4 57 13.9 97 97 NNW 9 15 29.99 1016 4 6 N/A
4:53 am 04:53 Cloudy with Mist and Fog 58 14.4 57 13.9 97 97 NNW 9 15 30.00 1016 6 10 N/A
5:53 am 05:53 Cloudy with Mist and Fog 58 14.4 57 13.9 97 97 NW 13 20 30.00 1016 5 8 N/A
6:13 am 06:13 Cloudy 57 13.9 57 13.9 100 100 NW 12 19 29.99 1016 7 11 N/A
6:53 am 06:53 Cloudy 57 13.9 57 13.9 100 100 NNW 12 19 30.01 1016 8 13 0.01 0.25
7:18 am 07:18 Cloudy 57 13.9 57 13.9 100 100 NW 10 17 29.99 1016 8 13 N/A
7:53 am 07:53 Cloudy 57 13.9 56 13.3 96 96 NW 13 20 30.01 1016 10 16 N/A
8:53 am 08:53 Cloudy with Mist and Fog 57 13.9 56 13.3 96 96 NNW 15 24 30.01 1016 5 8 N/A
9:23 am 09:23 Cloudy 57 13.9 56 13.3 96 96 NW 15 24 30.00 1016 10 16 N/A
9:53 am 09:53 Cloudy 58 14.4 56 13.3 93 93 NNW 10 17 30.01 1016 8 13 N/A
10:53 am 10:53 Cloudy 59 15 57 13.9 93 93 NNW 12 19 30.02 1017 7 11 N/A
11:53 am 11:53 Cloudy 59 15 57 13.9 93 93 NNW 14 22 30.02 1017 10 16 N/A
12:53 pm 12:53 Cloudy 59 15 56 13.3 90 90 N 14 22 30.02 1017 10 16 N/A
1:21 pm 13:21 Cloudy 58 14.4 57 13.9 97 97 NNW 10 17 30.00 1016 10 16 N/A
1:53 pm 13:53 Cloudy 59 15 56 13.3 90 90 NNW 8 13 30.01 1016 8 13 N/A
2:00 pm 14:00 Cloudy 59 15 56 13.3 90 90 NNW 7 11 30.00 1016 10 16 N/A
2:28 pm 14:28 Cloudy 61 16.1 57 13.9 87 87 NNW 9 15 29.98 1015 10 16 N/A
2:53 pm 14:53 Cloudy with Mist and Fog 61 16.1 57 13.9 87 87 NW 12 19 30.00 1016 5 8 N/A
3:21 pm 15:21 Cloudy 60 15.6 58 14.4 93 93 NNW 9 15 29.97 1015 10 16 0.01 0.25
3:53 pm 15:53 Mostly Cloudy 64 17.8 57 13.9 78 78 WNW 10 17 29.98 1015 10 16 0.01 0.25
4:53 pm 16:53 Sunny 66 18.9 56 13.3 70 70 NNW 13 20 29.98 1015 10 16 N/A
5:53 pm 17:53 Sunny 67 19.4 54 12.2 63 63 NNW 12 19 29.97 1015 10 16 N/A
6:53 pm 18:53 Sunny 62 16.7 50 10 65 65 NNW 7 11 29.98 1015 10 16 N/A
7:53 pm 19:53 Clear 58 14.4 50 10 75 75 N N/A 29.99 1016 10 16 N/A
8:53 pm 20:53 Clear 55 12.8 50 10 83 83 N N/A 29.99 1016 10 16 N/A
9:53 pm 21:53 Clear 52 11.1 50 10 93 93 N N/A 30.01 1016 10 16 N/A
10:53 pm 22:53 Clear with Mist and Fog 50 10 49 9.4 96 96 N N/A 30.01 1016 4 6 N/A
11:05 pm 23:05 Clear with Mist and Fog 49 9.4 48 8.9 97 97 N N/A 30.01 1016 2 2 N/A
11:09 pm 23:09 Clear with Mist and Fog 49 9.4 48 8.9 97 97 N N/A 30.01 1016 1 1 N/A
11:45 pm 23:45 Mostly Cloudy with Fog 48 8.9 47 8.3 96 96 N N/A 30.03 1017 1 1 N/A
11:49 pm 23:49 Clear with Mist and Fog 48 9 46 8 94 94 N N/A 30.03 1017 1 2 N/A
11:53 pm 23:53 Clear with Mist and Fog 49 9.4 48 8.9 97 97 N N/A 30.02 1017 2 3 N/A

Powered by AerisWeather